Fort Collins, CO

8:45 AM MST on December 08, 2019 (GMT -0700)
Fort Collins-Loveland Municipal

Weather History for KFNL - October, 2019

Change the Weather History Date:

Saturday, October 26, 2019

  Actual Average Record
Temperature  
Mean Temperature 52 °F -  
Max Temperature 74 °F - 78 °F (2014)
Min Temperature 29 °F - 6 °F (1997)
Degree Days  
Heating Degree Days 13    
Month to date heating degree days 435  
Cooling Degree Days 0    
Month to date cooling degree days 0  
Growing Degree Days 2 (Base 50)    
Moisture  
Dew Point 27 °F    
Average Humidity 52    
Maximum Humidity 89    
Minimum Humidity 14    
Precipitation  
Precipitation 0.00 in - 0.98 in (2006)
Snow  
Snow 0.00 in - - ()
Snow Depth 0.00 in    
Sea Level Pressure  
Sea Level Pressure 29.80 in    
Wind  
Wind Speed 7 mph (NNE)    
Max Wind Speed 23 mph    
Max Gust Speed 36 mph    
Visibility 10 miles    
Events      
T = Trace of Precipitation, MM = Missing Value Source: NWS Daily Summary

Daily Weather History Graph

Daily Weather History Graph

Search for Another Location

Airport or City:

Astronomy

Oct. 26, 2019 Rise Set
Actual Time 7:22 AM MDT 6:04 PM MDT
Civil Twilight 6:54 AM MDT 6:32 PM MDT
Nautical Twilight 6:22 AM MDT 7:04 PM MDT
Astronomical Twilight 5:51 AM MDT 7:35 PM MDT
Moon 5:20 AM MDT (10/26) 5:42 PM MDT (10/26)
Length of Visible Light 11h 37m
Length of Day
10h 41m
Waning Crescent, 3% of the Moon is Illuminated
Oct 26
Waning Crescent
Oct 27
New
Nov 4
First Quarter
Nov 12
Full
Nov 19
Last Quarter

Hourly Weather History & Observations

Time (MDT) Temp. Windchill Dew Point Humidity Pressure Visibility Wind Dir Wind Speed Gust Speed Precip Events Conditions
12:56 AM 39.0 °F 36.8 °F 26.1 °F 60% 29.91 in 10.0 mi NW 3.5 mph - N/A   Clear
1:56 AM 37.9 °F 32.7 °F 33.1 °F 83% 29.86 in 4.0 mi South 6.9 mph - N/A   Haze
2:56 AM 35.1 °F - 27.0 °F 72% 29.85 in 10.0 mi Calm Calm - N/A   Clear
3:56 AM 30.0 °F - 27.0 °F 88% 29.84 in 10.0 mi Calm Calm - N/A   Clear
4:56 AM 30.0 °F 26.5 °F 26.1 °F 85% 29.82 in 10.0 mi South 3.5 mph - N/A   Clear
5:56 AM 34.0 °F 28.8 °F 30.0 °F 85% 29.79 in 10.0 mi SSE 5.8 mph - N/A   Clear
6:56 AM 32.0 °F 27.5 °F 28.0 °F 85% 29.79 in 10.0 mi NNE 4.6 mph - N/A   Clear
7:56 AM 30.0 °F - 26.1 °F 85% 29.79 in 10.0 mi Calm Calm - N/A   Clear
8:56 AM 46.0 °F 43.9 °F 30.0 °F 54% 29.75 in 10.0 mi SW 4.6 mph - N/A   Clear
9:56 AM 46.9 °F - 32.0 °F 56% 29.75 in 10.0 mi NNE 4.6 mph - N/A   Clear
10:56 AM 48.9 °F - 32.0 °F 52% 29.75 in 10.0 mi NNE 3.5 mph - N/A   Clear
11:56 AM 64.9 °F - 25.0 °F 22% 29.67 in 10.0 mi SE 6.9 mph - N/A   Clear
12:56 PM 69.1 °F - 27.0 °F 21% 29.62 in 10.0 mi SSE 9.2 mph - N/A   Clear
1:56 PM 72.0 °F - 25.0 °F 17% 29.59 in 10.0 mi West 4.6 mph - N/A   Clear
2:56 PM 72.0 °F - 23.0 °F 16% 29.57 in 10.0 mi NNW 3.5 mph - N/A   Clear
3:56 PM 73.9 °F - 21.0 °F 14% 29.59 in 10.0 mi NE 6.9 mph - N/A   Clear
4:56 PM 63.0 °F - 30.9 °F 30% 29.64 in 10.0 mi NE 19.6 mph 29.9 mph N/A   Clear
5:09 PM 59.0 °F - 30.2 °F 34% 29.70 in 10.0 mi ENE 20.7 mph 32.2 mph N/A   Clear
5:56 PM 51.1 °F - 30.9 °F 46% 29.74 in 10.0 mi NNE 23.0 mph - N/A   Clear
6:56 PM 43.0 °F 34.5 °F 28.9 °F 58% 29.83 in 10.0 mi NE 19.6 mph 26.5 mph N/A   Clear
7:56 PM 37.9 °F 28.5 °F 26.1 °F 62% 29.92 in 10.0 mi North 17.3 mph - N/A   Clear
8:56 PM 37.0 °F 28.1 °F 26.1 °F 65% 29.93 in 10.0 mi North 15.0 mph - N/A   Overcast
9:56 PM 35.1 °F 25.5 °F 24.1 °F 64% 29.94 in 10.0 mi NNE 15.0 mph - N/A   Overcast
10:35 PM 33.8 °F 22.8 °F 23.0 °F 65% 29.98 in 10.0 mi NNE 18.4 mph 21.9 mph N/A   Overcast
10:56 PM 34.0 °F 24.6 °F 21.0 °F 59% 29.97 in 10.0 mi NNE 13.8 mph - N/A   Overcast
11:21 PM 33.8 °F 24.8 °F 19.4 °F 56% 29.99 in 10.0 mi NE 12.7 mph - N/A   Overcast
11:41 PM 32.0 °F 22.5 °F 23.0 °F 69% 30.00 in 10.0 mi North 12.7 mph - N/A   Overcast
11:56 PM 30.9 °F 20.7 °F 23.0 °F 72% 29.95 in 10.0 mi NNE 13.8 mph - N/A   Overcast